Вернуться в каталог

TIANQI-14

АктивенСвязьVLEO
NORAD 48864·PAYLOAD·🇨🇳 China

Запущен Jun 18, 2021 с Xichang Satellite Launch Center

Loading…

Ближайшие Пролёты (ближайшие 24 часа)

TLE

СвежийSource: Space-Track

Эпоха: Sep 14, 2026, 08:09 UTC

1 48864U 21055E   26257.34025372  .00004884  00000-0  26102-3 0  9999
2 48864  34.9982 245.4348 0003877  21.3604 338.7270 15.14501270287247

Отслеживайте TIANQI-14 в реальном времени с AllMySat

Download on the App Store